Flag for Poland Weather past 2 weeks in Kielce, Poland

Now
54 °F

Overcast.


Feels Like: 54 °F
Forecast: 41 / 58 °F
Wind: 1 mph from North

Location: Kielce

Current Time: Oct 2, 2014 at 8:03:25 PM

Latest Report: Oct 2, 2014 at 7:00 PM


Visibility: 6 mi

Pressure: 30.42 "Hg

Humidity: 86%

Dew point: 49 °F

Location of KielceLocation

Historic Weather in Kielce — Graph

°F

Kielce temperature yesterday

Maximum temperature yesterday: 59 °F (at 1:00 PM)
Minimum temperature yesterday: 54 °F (at 11:00 PM)
Average temperature yesterday: 57 °F

Past Weeks' High & Low Weather Summary

 TemperatureHumidityPressure
High72 °F (Sep 18, 3:00 PM)100% (Sep 18, 6:00 AM)30.43 "Hg (Sep 18, 6:00 AM)
Low33 °F (Sep 24, 7:00 AM)41% (Sep 18, 4:00 PM)29.67 "Hg (Sep 22, 6:00 AM)
Average53 °F86%30.11 "Hg
* Reported Sep 17 6:00 PM — Oct 2 6:00 PM, Kielce, Weather by CustomWeather, © 2014

Note: Actual official high and low records may vary slightly from our data, if they occured in-between our weather recording intervals... More about our weather records

Advertising

Kielce weather history for previous 24 hours

 ConditionsComfort  
Time TempWeatherWind HumidityBarometerVisibility
6:00 PM
Oct 2
56 °FOvercast.1 mph83%30.40 "Hg11 mi
5:00 PM57 °FOvercast.1 mph81%30.40 "Hg11 mi
4:00 PM58 °FOvercast.3 mph76%30.39 "Hg12 mi
3:00 PM59 °FOvercast.2 mph73%30.39 "Hg16 mi
2:00 PM57 °FOvercast.2 mph76%30.40 "Hg14 mi
1:00 PM56 °FOvercast.2 mph77%30.40 "Hg12 mi
12:00 PM57 °FOvercast.2 mph74%30.39 "Hg14 mi
11:00 AM55 °FOvercast.1 mph78%30.39 "Hg14 mi
10:00 AM54 °FOvercast.2 mph78%30.39 "Hg16 mi
9:00 AM52 °FSprinkles. Overcast.1 mph88%30.39 "Hg11 mi
8:00 AM51 °FOvercast.2 mph93%30.38 "Hg8 mi
7:00 AM52 °FOvercast.2 mph89%30.36 "Hg9 mi
6:00 AM52 °FOvercast.2 mph84%30.35 "Hg9 mi
5:00 AM53 °FOvercast.2 mph87%30.35 "Hg9 mi
4:00 AM53 °FOvercast.2 mph88%30.34 "Hg7 mi
3:00 AM53 °FFog.1 mph90%30.34 "Hg6 mi
2:00 AM53 °FOvercast.2 mph95%30.34 "Hg4 mi
1:00 AM53 °FLight rain. Low clouds.2 mph96%30.34 "Hg3 mi
12:00 AM53 °FSprinkles. Low clouds.2 mph96%30.34 "Hg2 mi
11:00 PM
Oct 1
54 °FRain showers. Overcast.1 mph95%30.34 "Hg2 mi
10:00 PM55 °FLight rain. Low clouds.2 mph93%30.34 "Hg5 mi
9:00 PM56 °FFog.2 mph94%30.33 "Hg3 mi
8:00 PM56 °FFog.1 mph95%30.33 "Hg3 mi
Weather by CustomWeather, © 2014

See weather overviewHow to use our weather pages